www.pogodaiklimat.ru

Погода и климат >> Архив погоды >> Россия >> Красноярский край >> Светлолобово


ПОГОДА в Светлолобово

  • Прогноз погоды в Светлолобово
  • Монитор погоды в Светлолобово

АРХИВ ПОГОДЫ в Светлолобово

Время (UTC), дата Ветер
(напр.,м/с)
 
Видим.   Явления Облачность Т
(С)
Тd
(С)
f
(%)
Тe
(С)
Тes
(С)
Комфортность P
(гПа)
Po
(гПа)
Тmin
(С)
Tmax
(С)
R
(мм)
R24
(мм)
S
(см)
09 12.02 З 1 20 км 4/0
[Ci fib]
-21.9 -28.0 58 -25 -24 1035.8 991.3
12 12.02 штиль 0 20 км 3/0
[Ci fib]
-24.5 -28.5 69 -25 -25 1037.1 992.1 -20.4
15 12.02 ЮЗ 1 20 км 8/0
[Ac trans Ci fib]
-23.2 -27.1 70 -27 -27 1037.8 992.9
18 12.02 ЮЗ 1 20 км 8/0
[Ac trans Ci fib]
-22.9 -27.2 68 -26 -26 1038.3 993.5
21 12.02 штиль 0 20 км 8/0
[Ac trans]
-21.6 -24.9 75 -22 -22 1038.8 994.2
00 13.02 штиль 0 20 км 6/0
[Ci fib]
-22.2 -25.0 78 -22 -22 1039.3 994.5 -25.1 22
03 13.02 штиль 0 20 км {снег} 9/0
[Ac trans]
-19.1 -22.2 76 -19 -18 1039.0 994.8
06 13.02 С 2 20 км {снег} 8/0
[Ac trans]
-13.9 -17.6 74 -19 -17 1037.5 994.3
09 13.02 С 1 50 км 9/0
[Ac trans]
-11.3 -16.7 64 -13 -13 1036.4 993.6
12 13.02 З 1 20 км 8/0
[Ac trans Ci sp]
-12.2 -17.2 66 -14 -14 1036.8 993.8 -11.0 0.0
15 13.02 В 1 20 км 4/0
[Ci sp]
-15.8 -19.1 76 -18 -18 1037.5 993.9
18 13.02 штиль 0 4000 м дымка ясно -20.0 -21.8 86 -20 -20 1037.9 993.6
21 13.02 штиль 0 4000 м дымка 3/0
[Ci fib]
-21.9 -23.8 85 -22 -22 1038.4 993.7
00 14.02 штиль 0 4000 м дымка 3/0
[Ci fib]
-25.3 -27.6 81 -25 -25 1039.4 994.1 -25.3 22
03 14.02 СВ 1 4000 м дымка 8/0
[Ci sp]
-20.3 -22.2 85 -23 -22 1039.0 994.6
06 14.02 СВ 1 20 км 8/0
[Ci sp]
-12.6 -16.9 70 -15 -12 1037.3 994.2
09 14.02 С 1 20 км 4/0
[Ci fib]
-10.8 -15.3 69 -13 -12 1036.5 993.8
12 14.02 В 1 20 км 3/0
[Ci fib]
-16.5 -19.0 81 -19 -19 1037.5 993.8 -10.1
15 14.02 штиль 0 20 км 3/0
[Ci fib]
-20.9 -22.6 86 -21 -21 1038.3 993.8
18 14.02 штиль 0 4000 м дымка ясно -20.9 -22.7 85 -21 -21 1037.7 993.3
21 14.02 штиль 0 4000 м дымка ясно -23.0 -25.2 82 -23 -23 1037.9 993.1
00 15.02 В 1 4000 м дымка 6/0
[Ci fib]
-19.4 -21.0 87 -22 -22 1036.8 992.7 -23.2 22
03 15.02 В 1 4000 м дымка 10/0
[As op]
-17.4 -19.1 87 -20 -20 1036.6 992.8
06 15.02 В 2 20 км 10/0
[As op]
-13.8 -16.4 81 -19 -18 1035.3 992.2
09 15.02 В 2 20 км 10/0
[As op]
-10.6 -13.9 77 -15 -15 1033.8 991.3
12 15.02 В 1 20 км 10/0
[As op]
-10.7 -13.4 80 -13 -13 1033.5 990.9 -10.2
15 15.02 В 1 20 км 9/0
[Ac trans]
-10.7 -12.8 84 -13 -13 1032.1 989.6
18 15.02 штиль 0 20 км 6/0
[Ac trans]
-14.2 -15.4 91 -14 -14 1031.1 988.1
21 15.02 З 1 20 км ясно -18.6 -20.3 86 -21 -21 1030.6 986.9
00 16.02 СЗ 1 20 км 3/0
[Ci fib]
-16.3 -18.2 85 -19 -19 1028.5 985.2 -19.8 22
03 16.02 ЮЗ 1 20 км 8/0
[Ci fib]
-16.9 -18.5 87 -20 -18 1028.8 985.4 -20.1
06 16.02 Ю 2 20 км 8/0
[Ac trans Ci fib]
-5.5 -12.1 60 -9 -7 1025.6 984.2
09 16.02 СВ 1 20 км 8/0
[Ac trans Ci fib]
-5.0 -11.7 59 -7 -6 1024.0 982.7
12 16.02 Ю 9-11
{11}
20 км 8/0
[Ac trans]
-5.1 -12.1 58 -14 -14 1022.5 981.2 -4.2
15 16.02 З 2
{11}
20 км 8/0
[Ac trans Ci fib]
-5.4 -13.3 54 -9 -9 1022.2 980.9
18 16.02 Ю 6 20 км 8/0
[Ac trans]
-6.8 -13.0 61 -15 -15 1022.0 980.5
21 16.02 Ю 7 20 км 8/0
[Ac trans]
-6.9 -12.2 66 -15 -15 1021.6 980.1
00 17.02 Ю 6 20 км 8/0
[Ac trans]
-6.6 -11.6 68 -14 -14 1021.0 979.6 -7.9 22
03 17.02 Ю 5 20 км 8/0
[Ac trans Ci fib]
-5.1 -10.3 67 -12 -11 1020.7 979.5
06 17.02 Ю 7
{10}
20 км 6/0
[Ci sp]
-3.2 -9.2 63 -11 -10 1018.0 977.2
09 17.02 ЮВ 7
{12}
20 км 8/8 1000 м
[Sc]
-1.7 -8.9 58 -9 -9 1015.2 974.7
12 17.02 Ю 7
{11}
20 км 8/0
[Ac trans Ci sp]
-3.7 -9.8 63 -11 -11 1014.3 973.6 -1.7
15 17.02 ЮВ 3 20 км 6/0
[Ci fib]
-5.0 -11.6 60 -10 -10 1013.7 972.9
18 17.02 СЗ 2 20 км 4/0
[Ci fib]
-3.4 -13.5 45 -7 -7 1012.0 971.4
21 17.02 СЗ 2 20 км 8/0
[Ci fib]
-3.4 -14.4 42 -7 -7 1011.1 970.5
00 18.02 З 1 20 км 6/0
[Ci fib]
-5.0 -16.3 41 -7 -7 1011.0 970.2 -6.4 21
03 18.02 З 1 50 км 6/0
[Ci fib]
-5.2 -16.2 42 -7 -5 1011.2 970.3 -8.9
06 18.02 Ю 2 50 км 8/0
[Ci fib]
-2.1 -14.3 39 -5 -2 1009.8 969.5
09 18.02 СЗ 2 50 км 8/0
[Ci sp]
-2.3 -12.8 44 -5 -4 1009.1 968.7
12 18.02 Ю 8-10
{11}
20 км 8/0
[Ci sp]
-3.5 -11.2 55 -11 -11 1009.3 968.8 -0.7
15 18.02 Ю 6
{11}
20 км 8/0
[Ac trans Ci sp]
-3.2 -11.0 55 -10 -10 1010.2 969.7
18 18.02 Ю 8
{11}
20 км 6/0
[Ci sp]
-2.8 -10.3 56 -11 -11 1010.1 969.7
21 18.02 Ю 7
{10}
20 км 8/0
[Ci sp]
-2.6 -9.5 59 -10 -10 1011.6 971.2
00 19.02 Ю 6
{10}
20 км 4/0
[Ci fib]
-2.9 -7.5 71 -10 -10 1013.3 972.7 -3.7 21
03 19.02 Ю 6
{10}
50 км 4/0
[Ci fib]
-1.9 -7.4 66 -9 -8 1015.5 975.0 -3.9
06 19.02 ЮЗ 6
{10}
50 км 6/0
[Ci fib]
-0.1 -7.4 58 -6 -5 1017.5 977.2

 

Местоположение метеостанции Светлолобово (Красноярский край, Россия): широта 55.10 долгота 90.83 высота над уровнем моря 325 м.

В архиве по умолчанию представлена погода в Светлолобово за последнюю неделю. Архивные данные за месяц целиком и за предыдущие месяцы, начиная с января 2011 года, Вы можете получить, выбрав интересующий диапазон дат из раскрывающегося списка и нажав кнопку "Ввод!".


*Определитесь, кто Вы:
робот инопланетянин человек

Внимание! Время в таблицах - всемирное. Для получения местного времени необходимо прибавить поправку, которая равна 7 ч.

Смотрите также архив погоды в соседних городах и на ближайших метеорологических станциях:

Погода в Первомайском (Хакасия, Россия) (58 км)
Погода в Балахте (Красноярский край, Россия) (62 км)
Погода в Копьево-2 (Хакасия, Россия) (63 км)
Погода в Ужуре (Красноярский край, Россия) (68 км)
Погода в Шире (Хакасия, Россия) (88 км)
Погода в Назарово (Красноярский край, Россия) (108 км)
Погода в Лебяжьем (Красноярский край, Россия) (111 км)
Погода в Шарыпово (Красноярский край, Россия) (114 км)
Погода в Идринском (Красноярский край, Россия) (116 км)
Погода в Кемчуге (Красноярский край, Россия) (123 км)

Пояснения к столбцам:

Ветер - указаны скорость ветра в м/с - средняя за 10 мин, порывы в срок и между сроками (в фигурных скобках) и направление, откуда дует ветер: С - северный, СВ - северо-восточный, В - восточный, ЮВ - юго-восточный, Ю - южный, ЮЗ - юго-западный, З - западный, СЗ - северо-западный.
Видимость - горизонтальная дальность видимости в метрах или километрах. При видимости от 1 до 10 км при отсутствии осадков обычно наблюдается дымка, при ухудшении видимости до 1 км и менее - туман. В сухую погоду видимость может ухудшаться дымом, пылью или мглою.
Явления - указаны атмосферные явления, наблюдавшиеся в срок или в последний час перед сроком; фигурными скобками обозначены явления, наблюдавшиеся между сроками (за 1-3 часа до срока); квадратными скобками обозначены град или гололедные отложения с указанием их диаметра в мм.
Облачность - указаны через наклонную черту общая и нижняя облачность в баллах и высота нижней границы облаков в метрах; квадратными скобками обозначены формы облаков: Ci - перистые, Cs - перисто-слоистые, Cc - перисто-кучевые, Ac - высококучевые, As - высокослоистые, Sc - слоисто-кучевые, Ns - слоисто-дождевые, Cu - кучевые, Cb - кучево-дождевые. Подробнее классификацию облаков см. в Атласе облаков (PDF).
T - Температура воздуха - температура, измеренная на высоте 2 м над землей.
Td - Температура точки росы - температура, при понижении до которой содержащийся в воздухе водяной пар достигнет насыщения.
f - Относительная влажность воздуха - влажноcть воздуха, измеренная на высоте 2 м над землей.
Te - Эффективная температура - температура, которую ощущает одетый по сезону человек в тени. Характеристика душности погоды. При расчете учитывается влияние влажности воздуха и скорости ветра на теплоощущения человека.
Tes - Эффективная температура на солнце - температура, которую ощущает человек, с поправкой на солнечный нагрев. Характеристика знойности погоды. Зависит от высоты солнца над горизонтом, облачности и скорости ветра. Ночью, в пасмурную погоду, а также при ветре 12 м/с и более поправка равна нулю.
P - Атмосферное давление - приведенное к уровню моря атмосферное давление.
Po - Атмосферное давление - измеренное на уровне метеостанции атмосферное давление.
Tmin - Минимальная температура - минимум температуры воздуха на высоте 2 м над землей.
Tmax - Максимальная температура - максимум температуры воздуха на высоте 2 м над землей.
R - Количество осадков - Количество выпавших осадков за период времени, мм. При наведении курсора мыши на число - период времени, за который выпало указанное количество осадков.
R24 - Количество осадков - Количество выпавших осадков за 24 часа, мм.
S - Снежный покров - Высота снежного покрова, см. При наведении курсора мыши на число - состояние снежного покрова и степень покрытия местности в баллах.